Погода в Тингри

Китай     28°34′59″N   86°34′11″E
темп.,
°C
ветер,
м/с
пор.,
м/с
влажн.,
%
обл.,
%
осадки,
мм/ч
давл.,
гПа
погр.,
м
23 января, сб
сб2323:00−4юз33180 0.0 101527
02:00−5юз33140 0.0 101528
05:00−7юз44150 0.0 101439
08:00−8юз44200 0.0 101437
11:00−5ююз45190 0.0 1015211
14:000юз514150 0.0 10121820
17:000юз1120180 0.0 10082159
20:00−6ююз59250 0.0 1012324
24 января, вс
вс2423:00−7ююз67230 0.0 1015221
02:00−9ююз562221 0.0 1015147
05:00−10ююз562110 0.0 1014141
08:00−11ююз55225 0.0 1014104
11:00−8юз510140 0.0 1015954
14:00−2юз1129711 0.0 10122841
17:00−4юз1129140 0.0 10092472
20:00−8юз47180 0.0 1013370
25 января, пн
пн2523:00−10юз44220 0.0 101790
02:00−11юз33200 0.0 101858
05:00−12юз33170 0.0 101740
08:00−13юз33130 0.0 101741
11:00−10зюз23100 0.0 1018258
14:00−5з2770 0.0 10151244
17:00−4зюз59100 0.0 10121611
20:00−8юз34240 0.0 1014191
26 января, вт
вт2623:00−10юз34160 0.0 1018120
02:00−11юз33160 0.0 101865
05:00−12юз44180 0.0 101851
08:00−14юз44150 0.0 101848
11:00−11юз34120 0.0 1018320
14:00−6ююз5990 0.0 10151396
17:00−5юз713130 0.0 10121584
20:00−9юз35210 0.0 1014309
27 января, ср
ср2723:00−10юз34270 0.0 1018157
02:00−11юз33140 0.0 101845
05:00−13юз331433 0.0 101740
08:00−14юз431217 0.0 101742
11:00−10зюз12100 0.0 1019219
14:00−6ююз2780 0.0 10151264
17:00−5юз71690 0.0 10112044
20:00−9ююз34220 0.0 1014207